Weather History for KDGW - November, 2012

Change the Weather History Date:

Thursday, November 15, 2012

  Actual Average Record
Temperature  
Mean Temperature 34 °F 33 °F  
Max Temperature 50 °F 47 °F 71 °F (1999)
Min Temperature 18 °F 20 °F 2 °F (2000)
Degree Days  
Heating Degree Days 31 32  
Month to date heating degree days 424  
Since 1 July heating degree days 1291  
Cooling Degree Days 0 0  
Month to date cooling degree days 0  
Year to date cooling degree days 486  
Moisture  
Dew Point 21 °F    
Average Humidity 65    
Maximum Humidity 85    
Minimum Humidity 32    
Precipitation  
Precipitation 0.00 in 0.02 in - ()
Month to date precipitation 0.38  
Year to date precipitation 12.72  
Sea Level Pressure  
Sea Level Pressure 30.34 in    
Wind  
Wind Speed 4 mph (SSE)    
Max Wind Speed 16 mph    
Max Gust Speed 22 mph    
T = Trace of Precipitation, MM = Missing Value Source: NWS Daily Summary

Daily Weather History Graph

Daily Weather History Graph

Search for Another Location

Airport or City:

Trip Planner

Search our weather history database for the weather conditions in past years. The results will help you decide how hot, cold, wet, or windy it might be!

Date:

Astronomy

Nov. 15, 2012 Rise Set
Actual Time 6:54 AM MST 4:37 PM MST
Civil Twilight 6:23 AM MST 5:08 PM MST
Nautical Twilight 5:49 AM MST 5:42 PM MST
Astronomical Twilight 5:15 AM MST 6:16 PM MST
Moon 8:54 AM MST (11/15) 6:30 PM MST (11/15)
Length of Visible Light 10h 44m
Length of Day
9h 43m
Waxing Crescent, 5% of the Moon is Illuminated
Nov 15
Waxing Crescent
Nov 20
First Quarter
Nov 28
Full
Dec 6
Last Quarter
Dec 13
New

Hourly Weather History & Observations

Time (MST) Temp. Windchill Dew Point Humidity Pressure Visibility Wind Dir Wind Speed Gust Speed Precip Events Conditions
12:53 AM 27.0 °F 23.0 °F 21.0 °F 78% 30.28 in - NNW 3.5 mph - N/A   Clear
1:53 AM 26.1 °F 21.9 °F 21.0 °F 81% 30.31 in - North 3.5 mph - N/A   Clear
2:53 AM 23.0 °F 18.4 °F 19.0 °F 85% 30.35 in - NNW 3.5 mph - N/A   Clear
3:53 AM 24.1 °F - 19.0 °F 81% 30.36 in - Calm Calm - N/A   Mostly Cloudy
4:53 AM 19.9 °F - 16.0 °F 85% 30.41 in - Calm Calm - N/A   Partly Cloudy
5:53 AM 21.0 °F - 17.1 °F 85% 30.41 in - Calm Calm - N/A   Clear
6:53 AM 18.0 °F 12.7 °F 14.0 °F 84% 30.46 in - South 3.5 mph - N/A   Clear
7:53 AM 24.1 °F - 19.9 °F 84% 30.44 in - Calm Calm - N/A   Clear
8:53 AM 32.0 °F - 24.1 °F 73% 30.42 in - Calm Calm - N/A   Mostly Cloudy
9:53 AM 39.0 °F 34.8 °F 25.0 °F 57% 30.40 in - SSE 5.8 mph - N/A   Clear
10:53 AM 45.0 °F 39.7 °F 24.1 °F 44% 30.37 in - SSE 10.4 mph - N/A   Clear
11:53 AM 48.0 °F - 21.9 °F 36% 30.33 in - SE 11.5 mph 21.9 mph N/A   Clear
12:53 PM 50.0 °F - 23.0 °F 35% 30.30 in - SSE 16.1 mph - N/A   Clear
1:53 PM 50.0 °F - 21.0 °F 32% 30.28 in - SSW 11.5 mph - N/A   Scattered Clouds
2:53 PM 50.0 °F - 21.0 °F 32% 30.29 in - South 9.2 mph - N/A   Clear
3:53 PM 48.0 °F - 19.0 °F 32% 30.30 in - WSW 3.5 mph - N/A   Clear
4:53 PM 39.0 °F 36.8 °F 19.9 °F 46% 30.34 in - SE 3.5 mph - N/A   Clear
5:53 PM 32.0 °F 25.6 °F 19.0 °F 59% 30.35 in - SSE 6.9 mph - N/A   Clear
6:53 PM 32.0 °F 24.8 °F 21.0 °F 64% 30.37 in - SE 8.1 mph - N/A   Clear
7:53 PM 30.0 °F 22.4 °F 21.9 °F 72% 30.34 in - SE 8.1 mph - N/A   Clear
8:53 PM 34.0 °F 29.8 °F 24.1 °F 67% 30.29 in - SSE 4.6 mph - N/A   Clear
9:53 PM 28.9 °F 21.9 °F 23.0 °F 78% 30.27 in - SSE 6.9 mph - N/A   Clear
10:53 PM 26.1 °F 18.4 °F 21.0 °F 81% 30.24 in - SE 6.9 mph - N/A   Clear
11:53 PM 25.0 °F - 21.0 °F 85% 30.22 in - Calm Calm - N/A   Clear